Location: Kalberh�ni
(46.4610°N, 7.2453°E)
Time: 22:12:30
(UTC+00:00)

USA 229 - Pass Details

Date: 27 October 2021
Orbit: 946 x 1266 km, 63.4° (Epoch: 25 November)

Event Time Altitude Azimuth Distance (km) Brightness Sun altitude
Rises 17:00:43 0° 199° (SSW) 3,620 6.9 -7.0°
Reaches altitude 10° 17:03:16 10° 194° (SSW) 2,699 6.2 -7.4°
Maximum altitude 17:09:20 52° 120° (ESE) 1,234 3.8 -8.5°
Drops below altitude 10° 17:15:50 10° 46° (NE) 2,886 5.5 -9.6°
Enters shadow 17:17:36 - 43° (NE) 3,520 5.9 -9.9°
